User: anonymous   Login
Location: Shell Point
(30.0571°N, 84.2896°W)
Time: 07:06:57
(UTC-04:00)
Language:

Meteor 2-19 Rocket - Orbit

View from above orbital plane
View from above orbital plane
View from above satellite
View from above satellite

Ground track
Ground track

The orbit data is extracted from the following two-line orbital elements,

1 20671U 90057B   18144.95269823 +.00000019 +00000-0 +33606-5 0  9992
2 20671 082.5464 100.4565 0016571 077.9906 282.3111 13.84613935410080
Epoch (UTC): 24 May 2018 22:51:53
Eccentricity: 0.0016571
inclination: 82.5464°
perigee height: 935 km
apogee height: 960 km
right ascension of ascending node: 100.4565°
argument of perigee: 77.9906°
revolutions per day: 13.84613935
mean anomaly at epoch: 282.3111°
orbit number at epoch: 41008

The dashed part of the orbit path shows where the satellite is in the earth's shadow,  

DLR